#datint,netname,site,siteID,timestamp,airt_abovecanopy_avg,airt_f,airt_belowcanopy_avg,dpt_f,rh,soil_vwc,soil_f,Solar_rad,winds_mph,windd_deg,winds_mph_max,leafwetns,tot_10rain_mm,tot_60rain_mm,tot_dayrain_mm,leaft_1,budt_1
10min,FGNet,alpine,42.04,05NOV2021:00:00:00,46.5,43.8,43.3,32.6,58,29.43,46.49,0,2.4,77.86,4.7,0,0.00,0.00,0.00,43.223,44.2436
10min,FGNet,alpine,42.04,05NOV2021:00:10:00,47.4,45.4,44.8,32.7,56,29.44,46.472,0,3.5,69.16,4.7,0,0.00,0.00,0.00,42.7442,43.9646
10min,FGNet,alpine,42.04,05NOV2021:00:20:00,47.4,44.6,44.0,33.0,57,29.44,46.418,0,1.8,115.3,4.2,0,0.00,0.00,0.00,40.5986,42.0674
10min,FGNet,alpine,42.04,05NOV2021:00:30:00,46.9,43.6,42.8,33.3,59,29.44,46.436,0,1.4,121.1,3.8,0,0.00,0.00,0.00,40.8164,42.1862
10min,FGNet,alpine,42.04,05NOV2021:00:40:00,46.7,43.4,42.9,33.8,60,29.43,46.3946,0,2.0,112.4,3.6,0,0.00,0.00,0.00,39.1748,41.3708
10min,FGNet,alpine,42.04,05NOV2021:00:50:00,46.7,43.4,42.7,33.9,61,29.44,46.3676,0,1.3,129.3,2.9,0,0.00,0.00,0.00,39.3332,41.5688
10min,FGNet,alpine,42.04,05NOV2021:01:00:00,46.6,42.7,42.1,33.8,61,29.43,46.3406,0,1.9,88.5,2.7,0,0.00,0.00,0.00,40.0928,41.2322
10min,FGNet,alpine,42.04,05NOV2021:01:10:00,46.3,43.3,42.7,33.6,61,29.44,46.301,0,2.3,91.3,3.6,0,0.00,0.00,0.00,38.3882,39.6698
10min,FGNet,alpine,42.04,05NOV2021:01:20:00,45.4,41.9,41.6,33.3,62,29.42,46.2326,0,1.6,77.93,2.6,0,0.00,0.00,0.00,37.976,39.5726
10min,FGNet,alpine,42.04,05NOV2021:01:30:00,44.6,41.1,40.8,33.3,64,29.43,46.1894,0,1.1,156.7,3.1,0,0.00,0.00,0.00,38.471,40.6238
10min,FGNet,alpine,42.04,05NOV2021:01:40:00,44.4,41.8,41.1,33.5,65,29.43,46.1444,0,3.5,102.1,5.8,0,0.00,0.00,0.00,40.9226,42.2546
10min,FGNet,alpine,42.04,05NOV2021:01:50:00,46.6,43.7,43.0,33.2,59,29.43,46.0976,0,2.5,74.47,7.0,0,0.00,0.00,0.00,37.8644,39.3116
10min,FGNet,alpine,42.04,05NOV2021:02:00:00,45.2,42.0,41.6,33.1,62,29.42,46.0616,0,1.1,40.35,2.7,0,0.00,0.00,0.00,37.1768,39.146
10min,FGNet,alpine,42.04,05NOV2021:02:10:00,44.2,40.8,40.3,33.1,65,29.43,46.0184,0,0.8,162.7,2.1,0,0.00,0.00,0.00,37.2956,38.732
10min,FGNet,alpine,42.04,05NOV2021:02:20:00,43.5,40.7,40.4,33.3,67,29.43,46.0274,0,1.3,97.4,2.0,0,0.00,0.00,0.00,36.3146,37.5908
10min,FGNet,alpine,42.04,05NOV2021:02:30:00,43.2,40.4,39.9,33.4,68,29.42,45.9626,0,2.1,73.42,2.9,0,0.00,0.00,0.00,37.6898,39.1082
10min,FGNet,alpine,42.04,05NOV2021:02:40:00,42.8,40.4,39.8,33.2,69,29.41,45.9104,0,2.0,66.47,3.8,0,0.00,0.00,0.00,36.2372,38.2694
10min,FGNet,alpine,42.04,05NOV2021:02:50:00,42.3,39.5,38.9,33.0,70,29.43,45.8366,0,0.5,75.87,1.9,0,0.00,0.00,0.00,34.943,36.6188
10min,FGNet,alpine,42.04,05NOV2021:03:00:00,41.4,38.5,38.1,33.0,72,29.43,45.8366,0,1.3,76.23,3.0,0,0.00,0.00,0.00,34.943,36.9338
10min,FGNet,alpine,42.04,05NOV2021:03:10:00,41.5,39.5,39.0,32.9,71,29.42,45.761,0,2.2,53.53,4.5,0,0.00,0.00,0.00,35.6306,37.85
10min,FGNet,alpine,42.04,05NOV2021:03:20:00,41.6,39.0,38.5,32.7,71,29.43,45.7484,0,1.5,61.37,3.3,0,0.00,0.00,0.00,35.1446,37.7168
10min,FGNet,alpine,42.04,05NOV2021:03:30:00,41.2,38.3,37.9,32.9,72,29.42,45.6854,0,0.9,95.3,2.0,0,0.00,0.00,0.00,34.772,35.7926
10min,FGNet,alpine,42.04,05NOV2021:03:40:00,41.3,38.3,37.8,32.7,71,29.42,45.6836,0,1.7,86.5,3.0,0,0.00,0.00,0.00,34.853,35.951
10min,FGNet,alpine,42.04,05NOV2021:03:50:00,40.9,38.4,37.8,32.7,72,29.43,45.6476,0,1.4,68.95,2.6,0,0.00,0.00,0.00,34.5614,36.266
10min,FGNet,alpine,42.04,05NOV2021:04:00:00,40.6,38.0,37.7,32.6,73,29.42,45.5864,0,2.0,66.39,4.4,0,0.00,0.00,0.00,35.816,37.2092
10min,FGNet,alpine,42.04,05NOV2021:04:10:00,40.4,38.1,37.8,32.7,74,29.42,45.563,0,2.1,77.85,4.2,0,0.00,0.00,0.00,36.4046,38.3306
10min,FGNet,alpine,42.04,05NOV2021:04:20:00,40.7,38.4,38.0,32.8,73,29.42,45.5,0,1.9,63.35,4.1,0,0.00,0.00,0.00,34.835,37.013
10min,FGNet,alpine,42.04,05NOV2021:04:30:00,40.3,37.5,37.1,32.7,74,29.4,45.491,0,0.9,62.9,1.7,0,0.00,0.00,0.00,33.6992,34.8746
10min,FGNet,alpine,42.04,05NOV2021:04:40:00,39.9,36.9,36.4,32.6,75,29.41,45.4586,0,0.7,96.8,2.0,0,0.00,0.00,0.00,33.386,34.6208
10min,FGNet,alpine,42.04,05NOV2021:04:50:00,39.6,36.9,36.7,32.8,76,29.41,45.3974,0,1.2,53.85,2.0,0,0.00,0.00,0.00,33.0728,34.4444
10min,FGNet,alpine,42.04,05NOV2021:05:00:00,39.6,36.7,36.4,32.6,76,29.41,45.3686,0,1.1,82.4,2.9,0,0.00,0.00,0.00,33.9134,34.9322
10min,FGNet,alpine,42.04,05NOV2021:05:10:00,39.3,36.6,36.2,32.5,76,29.41,45.2876,0,1.2,140,2.8,0,0.00,0.00,0.00,32.5634,34.2068
10min,FGNet,alpine,42.04,05NOV2021:05:20:00,38.9,37.0,36.5,32.6,78,29.42,45.2426,0,2.3,62.28,3.1,0,0.00,0.00,0.00,34.2176,36.0122
10min,FGNet,alpine,42.04,05NOV2021:05:30:00,38.7,36.6,36.1,32.6,79,29.4,45.2084,0,1.8,57.15,3.6,0,0.00,0.00,0.00,33.9548,35.6396
10min,FGNet,alpine,42.04,05NOV2021:05:40:00,39.1,36.9,36.4,32.7,77,29.4,45.1454,0,1.6,138.6,3.3,0,0.00,0.00,0.00,33.4454,34.6208
10min,FGNet,alpine,42.04,05NOV2021:05:50:00,38.9,36.1,35.7,32.4,77,29.41,45.14,0,0.8,58.21,2.7,0,0.00,0.00,0.00,32.4464,33.7784
10min,FGNet,alpine,42.04,05NOV2021:06:00:00,38.5,36.6,36.3,32.6,79,29.41,45.1076,0,2.8,76.07,4.6,0,0.00,0.00,0.00,34.0142,35.5802
10min,FGNet,alpine,42.04,05NOV2021:06:10:00,38.5,36.4,36.0,32.5,79,29.41,45.0536,0,1.6,81.4,3.3,0,0.00,0.00,0.00,32.5256,33.6416
10min,FGNet,alpine,42.04,05NOV2021:06:20:00,38.2,36.4,35.8,32.6,80,29.41,44.9996,0,0.5,92.3,1.7,0,0.00,0.00,0.00,32.1728,33.7694
10min,FGNet,alpine,42.04,05NOV2021:06:30:00,37.9,35.7,35.2,32.6,81,29.4,44.9186,0,0.7,65.05,2.2,0,0.00,0.00,0.00,32.9954,33.9944
10min,FGNet,alpine,42.04,05NOV2021:06:40:00,38.1,35.9,35.6,32.6,80,29.41,44.879,0,1.4,59.89,2.3,0,0.00,0.00,0.00,31.7426,33.0926
10min,FGNet,alpine,42.04,05NOV2021:06:50:00,37.8,35.4,35.1,32.5,81,29.41,44.843,0,0.9,91.5,3.0,0,0.00,0.00,0.00,31.3898,34.1024
10min,FGNet,alpine,42.04,05NOV2021:07:00:00,37.2,34.3,34.0,31.9,81,29.41,44.807,0,0.0,89.3,0.0,0,0.00,0.00,0.00,31.1162,33.269
10min,FGNet,alpine,42.04,05NOV2021:07:10:00,37.0,34.5,34.3,32.6,84,29.4,44.7674,0,1.3,77.46,2.9,0,0.00,0.00,0.00,32.486,33.6218
10min,FGNet,alpine,42.04,05NOV2021:07:20:00,37.0,34.8,34.4,32.5,83,29.42,44.7296,0,1.3,76.39,2.3,0,0.00,0.00,0.00,31.1738,32.3492
10min,FGNet,alpine,42.04,05NOV2021:07:30:00,36.8,35.2,34.8,32.8,85,29.41,44.7026,0,2.5,78.54,4.2,0,0.00,0.00,0.00,32.702,34.6604
10min,FGNet,alpine,42.04,05NOV2021:07:40:00,36.7,34.6,34.2,32.7,85,29.41,44.6504,0,0.7,56.06,2.5,0,0.00,0.00,0.00,30.569,32.6552
10min,FGNet,alpine,42.04,05NOV2021:07:50:00,36.1,33.9,33.7,32.5,86,29.42,44.618,1,0.2,63.58,1.5,0,0.00,0.00,0.00,31.3538,32.1368
10min,FGNet,alpine,42.04,05NOV2021:08:00:00,36.2,34.5,34.0,32.9,88,29.41,44.5784,2,1.3,83.5,2.6,61.67,0.00,0.00,0.00,32.6264,34.1726
10min,FGNet,alpine,42.04,05NOV2021:08:10:00,36.5,34.9,34.4,33.0,87,29.41,44.5604,5,1.6,55.07,2.2,100,0.00,0.00,0.00,32.1386,33.3914
10min,FGNet,alpine,42.04,05NOV2021:08:20:00,36.3,34.6,34.3,32.8,87,29.41,44.501,8,1.8,65.75,2.9,100,0.00,0.00,0.00,32.2574,33.7658
10min,FGNet,alpine,42.04,05NOV2021:08:30:00,36.3,34.6,34.2,32.8,87,29.41,44.456,11,1.3,86.7,2.5,100,0.00,0.00,0.00,31.4168,33.3158
10min,FGNet,alpine,42.04,05NOV2021:08:40:00,36.2,33.9,33.3,32.7,87,29.41,44.3966,13,0.4,46.97,1.9,100,0.00,0.00,0.00,31.4762,32.612
10min,FGNet,alpine,42.04,05NOV2021:08:50:00,36.1,34.1,33.6,32.8,88,29.41,44.3534,16,0.2,55.29,1.4,100,0.00,0.00,0.00,32.5922,33.3752
10min,FGNet,alpine,42.04,05NOV2021:09:00:00,36.4,34.5,34.1,33.2,88,29.41,44.2886,18,0.7,87.2,2.0,100,0.00,0.00,0.00,32.495,33.5516
10min,FGNet,alpine,42.04,05NOV2021:09:10:00,36.5,34.6,34.1,33.3,88,29.41,44.2454,20,1.1,56.56,2.5,100,0.00,0.00,0.00,33.4526,34.5686
10min,FGNet,alpine,42.04,05NOV2021:09:20:00,36.9,34.9,34.5,33.7,88,29.41,44.2256,21,1.3,88.4,2.2,100,0.00,0.00,0.00,33.0908,34.1582
10min,FGNet,alpine,42.04,05NOV2021:09:30:00,37.3,35.3,34.9,33.8,87,29.41,44.1824,23,1.2,79.73,3.0,100,0.00,0.00,0.00,33.6092,34.8836
10min,FGNet,alpine,42.04,05NOV2021:09:40:00,38.0,36.2,35.8,34.1,86,29.41,44.1464,25,1.3,79.22,3.2,100,0.00,0.00,0.00,34.2554,35.3912
10min,FGNet,alpine,42.04,05NOV2021:09:50:00,38.5,37.4,36.3,34.5,85,29.41,44.0744,162,1.9,81.2,3.6,100,0.00,0.00,0.00,40.5086,40.1918
10min,FGNet,alpine,42.04,05NOV2021:10:00:00,41.0,41.6,40.0,35.4,80,29.41,44.0114,284,2.1,85.5,3.9,46.67,0.00,0.00,0.00,44.393,44.0114
10min,FGNet,alpine,42.04,05NOV2021:10:10:00,43.5,44.1,43.4,35.7,74,29.4,43.961,307,2.2,74.76,3.8,0,0.00,0.00,0.00,50.054,48.812
10min,FGNet,alpine,42.04,05NOV2021:10:20:00,47.4,48.8,48.1,36.9,67,29.41,43.9574,329,0.6,136.2,1.6,0,0.00,0.00,0.00,55.202,51.8
10min,FGNet,alpine,42.04,05NOV2021:10:30:00,51.4,51.8,51.0,37.7,59,29.42,43.9034,352,0.6,138.1,1.2,0,0.00,0.00,0.00,56.426,54.86
10min,FGNet,alpine,42.04,05NOV2021:10:40:00,53.5,53.2,53.2,36.2,52,29.4,43.8944,375,0.7,129,2.3,0,0.00,0.00,0.00,60.152,56.228
10min,FGNet,alpine,42.04,05NOV2021:10:50:00,54.6,54.1,54.4,36.0,49,29.41,43.8494,396,0.6,140.7,2.1,0,0.00,0.00,0.00,61.016,56.822
10min,FGNet,alpine,42.04,05NOV2021:11:00:00,55.0,54.2,54.1,36.0,49,29.4,43.8476,416,0.7,138.9,2.6,0,0.00,0.00,0.00,64.22,59.54
10min,FGNet,alpine,42.04,05NOV2021:11:10:00,56.3,56.2,55.3,36.3,47,29.42,43.8134,435,1.0,213.8,2.3,0,0.00,0.00,0.00,63.392,58.406
10min,FGNet,alpine,42.04,05NOV2021:11:20:00,56.9,55.4,55.6,36.0,45,29.42,43.7936,453,0.6,225.6,3.4,0,0.00,0.00,0.00,64.688,58.442
10min,FGNet,alpine,42.04,05NOV2021:11:30:00,56.5,55.8,55.6,36.9,48,29.41,43.7936,469,1.5,277,4.4,0,0.00,0.00,0.00,65.984,60.44
10min,FGNet,alpine,42.04,05NOV2021:11:40:00,56.6,56.6,56.6,37.6,49,29.41,43.8116,483,1.5,256.5,3.2,0,0.00,0.00,0.00,66.416,63.5
10min,FGNet,alpine,42.04,05NOV2021:11:50:00,57.5,57.9,58.0,37.4,47,29.41,43.8134,497,1.6,216.5,4.2,0,0.00,0.00,0.00,71.384,63.77
10min,FGNet,alpine,42.04,05NOV2021:12:00:00,58.9,58.7,58.7,38.0,46,29.4,43.8134,510,1.5,225.9,4.5,0,0.00,0.00,0.00,70.988,63.176
10min,FGNet,alpine,42.04,05NOV2021:12:10:00,59.0,58.5,58.8,37.7,45,29.4,43.8566,521,1.3,202.6,3.7,0,0.00,0.00,0.00,73.832,67.334
10min,FGNet,alpine,42.04,05NOV2021:12:20:00,59.4,59.0,59.4,39.1,47,29.4,43.8764,529,1.7,240.5,3.8,0,0.00,0.00,0.00,73.238,64.562
10min,FGNet,alpine,42.04,05NOV2021:12:30:00,59.3,59.9,60.5,39.1,47,29.4,43.8656,537,2.1,202,4.7,0,0.00,0.00,0.00,77.612,69.296
10min,FGNet,alpine,42.04,05NOV2021:12:40:00,59.7,59.7,60.5,38.7,46,29.4,43.9286,544,1.8,271.7,3.9,0,0.00,0.00,0.00,75.56,63.482
10min,FGNet,alpine,42.04,05NOV2021:12:50:00,60.7,60.9,61.8,38.3,43,29.4,43.9646,547,2.2,216.7,5.9,0,0.00,0.00,0.00,66.974,62.366
10min,FGNet,alpine,42.04,05NOV2021:13:00:00,60.5,61.2,61.6,39.1,45,29.39,44.042,550,2.7,209.1,4.9,0,0.00,0.00,0.00,69.512,66.614
10min,FGNet,alpine,42.04,05NOV2021:13:10:00,61.0,61.8,62.0,39.0,44,29.39,44.132,551,1.7,224,4.6,0,0.00,0.00,0.00,78.152,69.44
10min,FGNet,alpine,42.04,05NOV2021:13:20:00,61.0,62.2,62.0,39.7,45,29.38,44.2094,549,3.4,257,5.7,0,0.00,0.00,0.00,77.378,67.154
10min,FGNet,alpine,42.04,05NOV2021:13:30:00,61.2,62.3,62.0,39.0,44,29.4,44.2724,548,3.3,237.7,7.2,0,0.00,0.00,0.00,75.74,66.668
10min,FGNet,alpine,42.04,05NOV2021:13:40:00,61.5,63.1,63.2,39.6,44,29.38,44.357,543,2.7,225.3,6.2,0,0.00,0.00,0.00,75.47,67.28
10min,FGNet,alpine,42.04,05NOV2021:13:50:00,61.4,62.9,62.7,39.2,44,29.38,44.4506,538,2.4,212.2,6.2,0,0.00,0.00,0.00,80.798,73.076
10min,FGNet,alpine,42.04,05NOV2021:14:00:00,61.8,63.6,63.5,39.8,44,29.38,44.5784,531,3.3,231.8,6.1,0,0.00,0.00,0.00,79.43,68.9
10min,FGNet,alpine,42.04,05NOV2021:14:10:00,61.5,63.4,63.5,39.4,44,29.38,44.627,524,3.8,229.9,6.6,0,0.00,0.00,0.00,70.43,64.706
10min,FGNet,alpine,42.04,05NOV2021:14:20:00,61.8,64.1,63.7,38.7,42,29.37,44.7044,515,3.0,227.4,5.9,0,0.00,0.00,0.00,78.53,69.008
10min,FGNet,alpine,42.04,05NOV2021:14:30:00,62.2,64.9,64.5,38.4,41,29.37,44.8016,504,2.2,197,5.2,0,0.00,0.00,0.00,87.908,76.1
10min,FGNet,alpine,42.04,05NOV2021:14:40:00,62.9,65.3,65.0,38.4,40,29.37,44.8826,495,2.5,223.1,5.2,0,0.00,0.00,0.00,82.076,71.204
10min,FGNet,alpine,42.04,05NOV2021:14:50:00,62.7,64.6,63.8,37.4,39,29.37,45.0176,487,2.2,257.4,4.0,0,0.00,0.00,0.00,85.424,72.176
10min,FGNet,alpine,42.04,05NOV2021:15:00:00,63.3,65.9,64.0,37.9,39,29.37,45.122,464,1.3,192.3,4.4,0,0.00,0.00,0.00,84.452,73.364
10min,FGNet,alpine,42.04,05NOV2021:15:10:00,64.0,65.9,64.4,38.0,38,29.37,45.239,452,2.3,199.4,6.2,0,0.00,0.00,0.00,86.702,76.172
10min,FGNet,alpine,42.04,05NOV2021:15:20:00,63.7,64.5,63.8,37.7,38,29.35,45.3686,432,2.1,197.8,5.1,0,0.00,0.00,0.00,87.98,78.314
10min,FGNet,alpine,42.04,05NOV2021:15:30:00,64.0,64.6,64.3,37.4,37,29.35,45.5036,432,1.8,237.3,4.2,0,0.00,0.00,0.00,85.28,74.372
10min,FGNet,alpine,42.04,05NOV2021:15:40:00,64.1,64.1,64.1,36.3,36,29.35,45.5864,406,2.0,286.6,4.8,0,0.00,0.00,0.00,84.722,74.588
10min,FGNet,alpine,42.04,05NOV2021:15:50:00,64.6,64.8,64.3,35.5,34,29.35,45.689,384,1.8,231.6,6.2,0,0.00,0.00,0.00,87.206,76.442
10min,FGNet,alpine,42.04,05NOV2021:16:00:00,64.9,64.7,64.5,35.0,33,29.34,45.8006,367,1.4,195.1,4.0,0,0.00,0.00,0.00,86.828,74.84
10min,FGNet,alpine,42.04,05NOV2021:16:10:00,65.7,65.8,65.6,34.4,31,29.34,45.8654,340,2.5,260.5,4.8,0,0.00,0.00,0.00,87.332,77.972
10min,FGNet,alpine,42.04,05NOV2021:16:20:00,66.3,66.0,66.3,31.3,27,29.33,46.0274,339,2.2,224.9,6.0,0,0.00,0.00,0.00,85.496,75.254
10min,FGNet,alpine,42.04,05NOV2021:16:30:00,66.2,66.2,65.7,27.7,23,29.34,46.076,303,4.9,223.2,10.1,0,0.00,0.00,0.00,80.798,74.102
10min,FGNet,alpine,42.04,05NOV2021:16:40:00,66.4,66.6,65.9,27.0,23,29.34,46.2236,262,3.4,197.1,5.4,0,0.00,0.00,0.00,81.68,76.082
10min,FGNet,alpine,42.04,05NOV2021:16:50:00,66.5,66.0,65.9,26.3,22,29.33,46.3496,199,2.2,193.9,6.2,0,0.00,0.00,0.00,78.53,73.004
10min,FGNet,alpine,42.04,05NOV2021:17:00:00,66.3,65.9,65.8,25.1,21,29.33,46.418,199,2.0,183,4.6,0,0.00,0.00,0.00,79.646,74.948
10min,FGNet,alpine,42.04,05NOV2021:17:10:00,66.6,66.0,65.5,24.6,20,29.31,46.508,162,1.7,216.6,5.9,0,0.00,0.00,0.00,72.788,70.394
10min,FGNet,alpine,42.04,05NOV2021:17:20:00,66.6,66.0,65.2,24.4,20,29.33,46.562,114,0.7,217.7,2.3,0,0.00,0.00,0.00,67.694,68.72
10min,FGNet,alpine,42.04,05NOV2021:17:30:00,66.2,65.3,64.0,25.3,21,29.32,46.634,113,0.8,262.1,2.0,0,0.00,0.00,0.00,66.776,67.586
10min,FGNet,alpine,42.04,05NOV2021:17:40:00,66.0,64.5,63.2,25.3,21,29.31,46.688,106,0.0,268.2,0.9,0,0.00,0.00,0.00,68.774,71.078
10min,FGNet,alpine,42.04,05NOV2021:17:50:00,65.2,62.9,62.2,25.4,22,29.31,46.778,101,0.0,268.2,0.0,0,0.00,0.00,0.00,71.132,71.816
10min,FGNet,alpine,42.04,05NOV2021:18:00:00,64.7,61.0,60.2,28.2,25,29.31,46.886,58,0.2,317.9,1.0,0,0.00,0.00,0.00,60.332,66.344
10min,FGNet,alpine,42.04,05NOV2021:18:10:00,63.4,58.0,57.7,28.3,27,29.3,46.94,30,0.9,176.7,2.1,0,0.00,0.00,0.00,54.95,56.318
10min,FGNet,alpine,42.04,05NOV2021:18:20:00,60.2,56.1,55.6,31.5,34,29.3,46.994,6,2.7,73.43,3.5,0,0.00,0.00,0.00,53.06,54.338
10min,FGNet,alpine,42.04,05NOV2021:18:30:00,58.3,54.8,54.1,31.7,36,29.3,47.03,2,3.2,77.58,3.9,0,0.00,0.00,0.00,51.908,53.096
10min,FGNet,alpine,42.04,05NOV2021:18:40:00,57.2,53.4,53.0,31.2,37,29.29,47.102,0,1.0,54.49,2.5,0,0.00,0.00,0.00,49.388,50.486
10min,FGNet,alpine,42.04,05NOV2021:18:50:00,55.9,52.4,51.8,30.9,38,29.29,47.138,0,1.3,93.5,2.9,0,0.00,0.00,0.00,47.768,49.442
10min,FGNet,alpine,42.04,05NOV2021:19:00:00,55.2,51.9,51.5,30.1,38,29.29,47.21,0,1.7,88.2,3.3,0,0.00,0.00,0.00,48.47,50.576
10min,FGNet,alpine,42.04,05NOV2021:19:10:00,54.4,51.3,50.8,30.6,40,29.29,47.246,0,1.5,75.9,3.0,0,0.00,0.00,0.00,47.048,49.496
10min,FGNet,alpine,42.04,05NOV2021:19:20:00,53.2,50.1,49.7,31.4,43,29.27,47.282,0,1.1,124.5,2.7,0,0.00,0.00,0.00,45.7268,47.408
10min,FGNet,alpine,42.04,05NOV2021:19:30:00,53.1,49.7,49.4,30.8,42,29.27,47.3,0,1.1,78.21,2.5,0,0.00,0.00,0.00,44.3012,45.5882
10min,FGNet,alpine,42.04,05NOV2021:19:40:00,52.0,49.0,48.6,31.0,45,29.28,47.3,0,1.6,105.3,3.1,0,0.00,0.00,0.00,46.2218,48.56
10min,FGNet,alpine,42.04,05NOV2021:19:50:00,52.1,48.9,48.2,30.1,43,29.27,47.3,0,1.3,88,3.1,0,0.00,0.00,0.00,43.9088,45.6998
10min,FGNet,alpine,42.04,05NOV2021:20:00:00,50.9,47.4,46.9,30.9,46,29.26,47.354,0,1.3,90.9,3.0,0,0.00,0.00,0.00,42.9098,44.492
10min,FGNet,alpine,42.04,05NOV2021:20:10:00,50.3,47.4,46.8,30.5,46,29.27,47.318,0,1.7,97.6,2.9,0,0.00,0.00,0.00,42.8702,44.1518
10min,FGNet,alpine,42.04,05NOV2021:20:20:00,49.7,46.9,46.5,30.0,46,29.28,47.336,0,1.9,69.91,3.0,0,0.00,0.00,0.00,44.4326,45.3578
10min,FGNet,alpine,42.04,05NOV2021:20:30:00,49.4,46.2,45.8,28.9,45,29.27,47.318,0,1.8,77.36,3.1,0,0.00,0.00,0.00,42.1142,43.61
10min,FGNet,alpine,42.04,05NOV2021:20:40:00,48.6,45.5,45.1,29.0,46,29.27,47.3,0,1.9,90.1,3.4,0,0.00,0.00,0.00,41.0018,42.9314
10min,FGNet,alpine,42.04,05NOV2021:20:50:00,48.1,45.2,44.6,28.9,47,29.26,47.3,0,1.8,99.9,2.9,0,0.00,0.00,0.00,40.5482,42.494
10min,FGNet,alpine,42.04,05NOV2021:21:00:00,47.7,44.6,44.2,28.6,47,29.27,47.3,0,1.6,110.1,2.5,0,0.00,0.00,0.00,41.3258,42.728
10min,FGNet,alpine,42.04,05NOV2021:21:10:00,48.3,45.1,44.4,27.7,44,29.27,47.264,0,1.3,87.9,3.4,0,0.00,0.00,0.00,39.4844,41.207
10min,FGNet,alpine,42.04,05NOV2021:21:20:00,47.6,43.8,43.5,28.1,46,29.27,47.246,0,1.0,70.47,3.4,0,0.00,0.00,0.00,40.442,42.098
10min,FGNet,alpine,42.04,05NOV2021:21:30:00,46.7,43.7,43.2,28.5,49,29.27,47.246,0,2.4,74.72,3.9,0,0.00,0.00,0.00,40.5302,42.7568
10min,FGNet,alpine,42.04,05NOV2021:21:40:00,47.3,44.4,43.8,27.6,46,29.26,47.192,0,2.6,77.3,4.5,0,0.00,0.00,0.00,40.1864,41.7416
10min,FGNet,alpine,42.04,05NOV2021:21:50:00,46.5,43.6,43.1,27.8,48,29.27,47.174,0,1.6,100.3,3.7,0,0.00,0.00,0.00,38.993,40.9298
10min,FGNet,alpine,42.04,05NOV2021:22:00:00,45.7,42.3,41.8,27.9,50,29.26,47.174,0,1.5,65.95,2.6,0,0.00,0.00,0.00,39.3008,42.0242
10min,FGNet,alpine,42.04,05NOV2021:22:10:00,45.8,43.1,42.5,27.4,48,29.26,47.12,0,2.4,37.59,5.0,0,0.00,0.00,0.00,41.2106,42.9836
10min,FGNet,alpine,42.04,05NOV2021:22:20:00,46.8,43.9,43.3,26.9,46,29.27,47.03,0,1.8,72.95,4.7,0,0.00,0.00,0.00,39.1154,41.153
10min,FGNet,alpine,42.04,05NOV2021:22:30:00,46.1,43.2,42.7,27.5,48,29.26,46.994,0,1.1,123.3,3.0,0,0.00,0.00,0.00,39.767,41.7488
10min,FGNet,alpine,42.04,05NOV2021:22:40:00,45.3,41.7,41.3,27.8,50,29.26,47.012,0,1.0,133.7,2.8,0,0.00,0.00,0.00,38.1506,39.7868
10min,FGNet,alpine,42.04,05NOV2021:22:50:00,44.9,41.8,41.5,27.5,50,29.26,46.922,0,2.4,63.78,3.4,0,0.00,0.00,0.00,40.37,41.6102
10min,FGNet,alpine,42.04,05NOV2021:23:00:00,46.4,43.8,43.0,26.7,46,29.27,46.922,0,2.7,103,6.1,0,0.00,0.00,0.00,38.2496,39.551
10min,FGNet,alpine,42.04,05NOV2021:23:10:00,45.1,41.8,41.3,27.4,50,29.26,46.886,0,1.4,144.8,4.3,0,0.00,0.00,0.00,41.432,43.916
10min,FGNet,alpine,42.04,05NOV2021:23:20:00,45.5,42.1,41.5,26.6,47,29.27,46.796,0,1.6,51.69,3.9,0,0.00,0.00,0.00,38.0552,40.7894
10min,FGNet,alpine,42.04,05NOV2021:23:30:00,44.4,41.5,40.8,27.2,51,29.26,46.778,0,1.3,143,3.6,0,0.00,0.00,0.00,37.5242,38.4296
10min,FGNet,alpine,42.04,05NOV2021:23:40:00,43.8,41.3,40.7,27.4,52,29.26,46.706,0,1.9,72.84,3.9,0,0.00,0.00,0.00,39.5564,40.6238
10min,FGNet,alpine,42.04,05NOV2021:23:50:00,44.3,42.3,41.7,26.8,50,29.26,46.652,0,3.2,105.1,5.1,0,0.00,0.00,0.00,40.6076,42.0764
10min,FGNet,alpine,42.04,06NOV2021:00:00:00,44.1,41.9,41.4,27.1,51,29.26,46.598,0,3.6,124.1,6.9,0,0.00,0.00,0.00,40.1144,41.3726
10min,FGNet,alpine,42.04,06NOV2021:00:10:00,43.9,42.5,42.0,27.5,52,29.28,46.562,0,3.3,155,6.1,0,0.00,0.00,0.00,40.8668,42.3572
10min,FGNet,alpine,42.04,06NOV2021:00:20:00,44.4,43.0,42.6,28.0,52,29.27,46.526,0,3.8,154.2,9.5,0,0.00,0.00,0.00,41.0144,42.4364
10min,FGNet,alpine,42.04,06NOV2021:00:30:00,45.3,43.0,42.2,28.4,51,29.28,46.49,0,2.4,147.6,5.1,0,0.00,0.00,0.00,39.956,41.4914
10min,FGNet,alpine,42.04,06NOV2021:00:40:00,45.6,43.0,42.2,28.5,51,29.26,46.454,0,1.6,94.7,4.9,0,0.00,0.00,0.00,39.8156,41.3204
10min,FGNet,alpine,42.04,06NOV2021:00:50:00,44.9,42.0,41.6,29.2,54,29.27,46.4,0,1.6,167.7,2.7,0,0.00,0.00,0.00,39.1946,41.144
10min,FGNet,genola,42.05,05NOV2021:00:00:00,59.1,54.8,51.4,31.0,34,15.4,51.782,0,1.3,73.88,3.4,0,0.00,0.00,0.00,52.682,53.78
10min,FGNet,genola,42.05,05NOV2021:00:10:00,59.2,55.3,52.2,30.5,34,15.46,51.782,0,3.6,37.59,5.5,0,0.00,0.00,0.00,53.87,55.148
10min,FGNet,genola,42.05,05NOV2021:00:20:00,59.3,55.2,52.8,30.6,34,15.44,51.782,0,4.1,198.6,6.3,0,0.00,0.00,0.00,52.232,53.834
10min,FGNet,genola,42.05,05NOV2021:00:30:00,58.0,54.3,52.3,31.1,36,15.5,51.782,0,3.3,250.8,5.7,0,0.00,0.00,0.00,50.126,51.494
10min,FGNet,genola,42.05,05NOV2021:00:40:00,55.3,53.2,52.4,34.2,45,15.46,51.782,0,6.3,284.9,10.6,0,0.00,0.00,0.00,48.848,50
10min,FGNet,genola,42.05,05NOV2021:00:50:00,52.8,52.2,51.7,36.0,53,15.41,51.782,0,7.3,84.9,10.4,0,0.00,0.00,0.00,50.378,51.386
10min,FGNet,genola,42.05,05NOV2021:01:00:00,54.4,54.2,53.7,32.8,44,15.44,51.764,0,7.7,31.59,10.1,0,0.00,0.00,0.00,52.718,53.672
10min,FGNet,genola,42.05,05NOV2021:01:10:00,56.4,55.7,54.8,31.7,39,15.43,51.764,0,5.7,31.77,7.9,0,0.00,0.00,0.00,52.034,54.266
10min,FGNet,genola,42.05,05NOV2021:01:20:00,56.3,53.4,51.8,32.2,40,15.41,51.746,0,3.2,112.3,7.6,0,0.00,0.00,0.00,46.1462,49.55
10min,FGNet,genola,42.05,05NOV2021:01:30:00,53.9,51.2,48.7,32.3,44,15.44,51.746,0,2.6,188.6,6.4,0,0.00,0.00,0.00,46.598,48.182
10min,FGNet,genola,42.05,05NOV2021:01:40:00,51.2,50.0,49.0,35.4,55,15.38,51.728,0,7.0,332.7,9.9,0,0.00,0.00,0.00,46.994,48.182
10min,FGNet,genola,42.05,05NOV2021:01:50:00,50.7,50.3,49.6,36.8,59,15.38,51.728,0,8.2,300.8,12.7,0,0.00,0.00,0.00,48.542,50
10min,FGNet,genola,42.05,05NOV2021:02:00:00,51.1,50.4,49.9,34.8,53,15.45,51.692,0,7.2,330,9.6,0,0.00,0.00,0.00,46.436,47.588
10min,FGNet,genola,42.05,05NOV2021:02:10:00,49.1,48.3,47.8,35.4,59,15.44,51.692,0,5.6,291.1,8.0,0,0.00,0.00,0.00,44.1734,45.8726
10min,FGNet,genola,42.05,05NOV2021:02:20:00,48.1,47.1,46.3,35.4,61,15.38,51.692,0,2.5,118.8,6.1,0,0.00,0.00,0.00,44.2544,46.94
10min,FGNet,genola,42.05,05NOV2021:02:30:00,49.4,48.1,46.7,36.8,62,15.45,51.674,0,2.5,215.2,3.7,0,0.00,0.00,0.00,42.809,45.0626
10min,FGNet,genola,42.05,05NOV2021:02:40:00,47.9,45.7,44.2,37.4,67,15.42,51.656,0,2.1,148.9,3.0,0,0.00,0.00,0.00,43.1294,44.3354
10min,FGNet,genola,42.05,05NOV2021:02:50:00,47.8,46.3,44.7,37.7,68,15.43,51.638,0,2.5,62.14,4.1,0,0.00,0.00,0.00,43.6982,44.7872
10min,FGNet,genola,42.05,05NOV2021:03:00:00,48.7,47.0,45.5,36.8,63,15.46,51.62,0,3.6,27.11,5.3,0,0.00,0.00,0.00,43.6298,45.0014
10min,FGNet,genola,42.05,05NOV2021:03:10:00,49.9,46.2,44.0,36.7,60,15.45,51.62,0,3.8,148.7,4.7,0,0.00,0.00,0.00,43.7144,45.167
10min,FGNet,genola,42.05,05NOV2021:03:20:00,48.5,46.5,44.9,36.4,63,15.44,51.602,0,3.5,145.3,4.5,0,0.00,0.00,0.00,43.3418,44.4794
10min,FGNet,genola,42.05,05NOV2021:03:30:00,48.0,46.2,45.5,36.0,63,15.38,51.584,0,3.8,335.4,5.4,0,0.00,0.00,0.00,41.3528,43.2338
10min,FGNet,genola,42.05,05NOV2021:03:40:00,46.1,44.7,44.1,35.9,67,15.42,51.584,0,4.9,284.2,6.9,0,0.00,0.00,0.00,41.8334,42.9134
10min,FGNet,genola,42.05,05NOV2021:03:50:00,45.2,44.6,44.2,36.0,70,15.42,51.566,0,5.4,263,9.1,0,0.00,0.00,0.00,38.8112,40.9964
10min,FGNet,genola,42.05,05NOV2021:04:00:00,42.4,41.5,41.3,35.2,75,15.42,51.548,0,2.1,265.7,4.2,0,0.00,0.00,0.00,37.3496,39.0884
10min,FGNet,genola,42.05,05NOV2021:04:10:00,41.2,40.6,40.0,34.9,78,15.43,51.53,0,2.3,65.66,4.3,0,0.00,0.00,0.00,37.7942,39.0884
10min,FGNet,genola,42.05,05NOV2021:04:20:00,42.2,40.0,39.1,35.0,75,15.41,51.53,0,1.3,51.12,3.6,0,0.00,0.00,0.00,36.5612,38.0012
10min,FGNet,genola,42.05,05NOV2021:04:30:00,43.1,40.8,39.4,35.2,73,15.47,51.494,0,2.7,69.51,3.4,0,0.00,0.00,0.00,38.1038,39.848
10min,FGNet,genola,42.05,05NOV2021:04:40:00,44.8,43.3,41.0,35.5,70,15.43,51.476,0,3.5,38.24,4.5,0,0.00,0.00,0.00,40.9262,42.5534
10min,FGNet,genola,42.05,05NOV2021:04:50:00,45.8,44.5,42.8,35.8,68,15.45,51.458,0,3.3,39.45,3.9,0,0.00,0.00,0.00,41.2466,42.6848
10min,FGNet,genola,42.05,05NOV2021:05:00:00,47.2,43.2,41.3,35.8,64,15.44,51.44,0,2.4,38.41,3.6,0,0.00,0.00,0.00,41.2466,42.5048
10min,FGNet,genola,42.05,05NOV2021:05:10:00,47.6,45.3,43.2,35.7,63,15.53,51.404,0,2.8,38.39,4.5,0,0.00,0.00,0.00,43.5704,44.618
10min,FGNet,genola,42.05,05NOV2021:05:20:00,49.1,45.6,42.7,35.9,60,15.45,51.404,0,2.6,41.01,4.1,0,0.00,0.00,0.00,42.4058,43.8926